Location: Moscow
(55.7500°N, 37.5830°E)
Time: 04:01:36
(UTC+03:00)

Vanguard 1 - Pass Details

Date: 18 August 2022
Orbit: 649 x 3832 km, 34.2° (Epoch: 30 September)

Event Time Altitude Azimuth Distance (km) Brightness Sun altitude
Exits shadow 02:38:32 14° 184° (S) 4,313 12.8 -16.3°
Maximum altitude 02:46:21 24° 145° (SE) 4,408 13.2 -15.7°
Drops below altitude 10° 02:59:43 10° 102° (ESE) 6,473 14.5 -14.6°
Sets 03:06:54 0° 92° (E) 7,819 15.2 -14.0°
